Washington Executive (W32)
Clinton, MD
Field Elevation: 249
Lat: 38°44.89N  Long: 76°55.97W
CTAF/Unicom Freq: 122.8000
   
    
Weather Advisories
10/22/2014 12:09 Z
Altimeter 29.91" Hg
Wind 001° @ 5 KT
Gusts 10 KT
Temperature 11° C (52° F)
Dewpoint 9° C (48° F)
Relative Humidity 87%
Density Altitude -136 feet
Condensation Altitude 1,254 feet
  Wind and Runways
Indicated Runway = 5
History
 
 
More Info
All DigiWx sites map
Weather Radar
NOAA Forecast
 
Airport IQ 5010
(HMIEM) Shock Trauma Ctr
(26N) Ocean City
 
about DigiWx
 
FAA Disclaimer: The data displayed is for advisory purposes only and is not to be used for flight planning or operations. For official data, please call (not available) to hear the current automated AWOS voice message.
  METAR W32 221209Z AUTO 00005G10KT 11/09 A2991